CZ-6A DEB, 54455

Orbit data source: Space-Track

CZ-6A DEB, 54455 is space debris in SSO originally from a launch on Fri, 11 Nov 2022 UTC launched from the Taiyaun Space Center, China (TSC). Debris objects in space refer to the collection of defunct objects orbiting the Earth. Examples of debris include non-operational satellites, rocket bodies, and fragments generated from explosions, collisions, or faulty payload assembly.

Loading next visibility...
Identifier
54455, 2022-151GF
Orbit
SSO
Country
Flag of CNCN / PRC
Related business
Manufacturer
SAST
Mission
Spacecraft
Bus & Motor
Unknown
Mass
Unknown
Launch date (UTC)
2022-11-11 (3 years ago)
Launch vehicle
Unknown
Launch site
Taiyaun Space Center, China (TSC)
Object type
Payload
Rocket body
Debris
Shape & HBR
Unknown shape, 0.1 m
Radar Cross Section
Small (<0.1 m²)

Expand to show TLE details & history
Last TLE update: 12 hours ago

TLE from 12 hours ago
0 CZ-6A DEB
1 54455U 22151GF  25351.87514697  .00001591  00000-0  12620-2 0  9996
2 54455  99.0333 322.3746 0175622 256.5752 101.5778 13.85867538156234
Epoch: 2025-12-17T21:00Z
TLE epoch observation values (Epoch: 2025-12-17T21:00:12.698Z)
Latitude
0.00005°
Longitude
-79.41705°
Altitude
973.972 km
Speed
7.351 km/s
True Right ascension
21h 29m 29s
True Declination
0° 00' 00"
Sunlit
Object was in daylight at epoch
Visualization orbit readout
Latitude
Unknown
Longitude
Unknown
Altitude
Unknown
Speed
Unknown
Apparent Right ascension
Unknown
Apparent Declination
Unknown
Sunlit
N/A
Visualization observer readout
Local Sidereal Time
08:15:55
Azimuth
Unknown
Elevation
Unknown
Doppler factor
Unknown
Orbital elements
Apogee altitude
1,068.896 km
Perigee altitude
811.838 km
Semi-major axis
7,318.504 km
Eccentricity
0.01756
Inclination
99.0333°
RAAN
322.3746°
Arg. of periapsis
256.5752°
True anomaly
103.5403°
Mean anomaly
101.5778°
Eccentric anomaly
102.55996°
Mean motion
3.46665 °/min
Orbital period
103.85 mins
BSTAR
0.001262
Loading maneuver chart data...
Computing Atmospheric mass density...
Loading historical data...
Loading historical data...
Loading historical data...
Loading historical data...
Loading historical data...
Loading historical data...
Loading historical data...

Documentation

Showing up to 5 results
|